Regional Weather Roundup
Issued by NWS

Home | Current Version | Previous Version | Text Only | Print | Product List | Glossary Off
Versions: 1 2 3 4 5 6 7 8 9 10 11 12 13 14 15 16 17 18 19 20 21 22 23 24 25 26 27 28 29 30 31 32 33 34 35 36 37 38 39 40 41 42 43 44 45 46 47 48 49 50

000
ASUS43 KLMK 312102
RWRKY
KENTUCKY REGIONAL WEATHER ROUNDUP
NATIONAL WEATHER SERVICE LOUISVILLE KY
500 PM EDT FRI OCT 31 2014

NOTE "FAIR" INDICATES FEW OR NO CLOUDS BELOW 12,000 FEET
WITH NO SIGNIFICANT WEATHER AND/OR OBSTRUCTIONS TO VISIBILITY.

KYZ001>023-026-027-061>063-070>075-312200-
WESTERN AND SOUTH CENTRAL KENTUCKY

CITY           SKY/WX    TMP DP  RH WIND       PRES   REMARKS
PADUCAH        PTSUNNY   48  25  40 N28G37    30.19R
HENDERSON      CLOUDY    45  27  49 NW18G25   30.14S
OWENSBORO      CLOUDY    44  30  58 N20G32    30.12R
HOPKINSVILLE   PTSUNNY   45  25  45 NW16G29   30.11R
BOWLING GREEN  PTSUNNY   47  27  45 NW18G28   30.05S
GLASGOW        NOT AVBL
$$

KYZ024-025-028>034-038-045-046-053-312200-
NORTH CENTRAL KENTUCKY

CITY           SKY/WX    TMP DP  RH WIND       PRES   REMARKS
LOUISVILLE/SDF PTSUNNY   44  35  70 NW14G24   30.01S
LOUISVILLE/LOU CLOUDY    43  35  73 NW10G24   30.01S
FORT KNOX      MOSUNNY   40  32  73 NW12G22   30.01S WCI  34
$$

KYZ035>037-039>044-047>052-055>060-089>105-312200-
NORTHEAST KENTUCKY

CITY           SKY/WX    TMP DP  RH WIND       PRES   REMARKS
LEXINGTON      LGT RAIN  40  34  79 NW21G30   29.96R WCI  30
COVINGTON      LGT RAIN  40  35  83 NW18G24   29.93S WCI  31
FRANKFORT      LGT RAIN  39  35  86 NW9       29.97R WCI  33
$$

KYZ054-064>069-076>088-106>120-312200-
SOUTHEAST KENTUCKY

CITY           SKY/WX    TMP DP  RH WIND       PRES   REMARKS
JACKSON        LGT RAIN  44  42  93 VRB3      29.86F FOG
LONDON         LGT RAIN  46  43  89 W8        29.89S FOG
SOMERSET       LGT RAIN  41  37  87 N15G28    29.96R
MIDDLESBORO    NOT AVBL
MONTICELLO     MOCLDY    41  38  89 NW15G26   29.98R FOG
$$




USA.gov is the U.S. government's official web portal to all federal, state and local government web resources and services.